Notices

What's New in latest Release from April 7th, 2021:

- Updated Glossary, including Speed of Maximum Gust, and Total Hourly Precipitation

- Updated national and regional climate services offices contacts and prices information

- Addition of station inventory lists for 1981-2010, 1971-2000, and 1961-1990 Normals.

If you haven't already, please take our survey and provide feedback about our website: https://eccc.sondage-survey.ca/f/LanguageSelection.aspx?s=442ca660-fcf1-47c0-95a9-59707d6fd709

Hourly Data Report for March 16, 2012

HALIFAX STANFIELD INT'L A
NOVA SCOTIA

44°52'48.060" N
63°30'00.050" W
145.40 m
8202250
71395
YHZ

Download Data

Hourly Data (March 2012)
Hourly Data Report for March 16, 2012
TIME
LST
Temp Definition
°C
Dew Point Definition
°C
Rel Hum Definition
%
Precip. Amount Definition
mm

Wind Dir Definition
10's deg

Wind Spd Definition
km/h
Visibility Definition
km
Stn Press Definition
kPa
Hmdx Definition


Wind Chill Definition


Weather Definition


00:00 -2.3 -3.2 94   35 11 24.1 100.53   -6 Cloudy
01:00 -2.6 -3.3 95   35 11 24.1 100.51   -7 Cloudy
02:00 -2.6 -3.3 95   34 9 24.1 100.50   -6 Cloudy
03:00 -2.6 -3.3 95   34 9 3.2 100.48   -6 Fog
04:00 -2.7 -3.3 96   32 9 6.4 100.45   -6 Fog
05:00 -2.8 -3.5 95   34 9 3.2 100.46   -6 Fog
06:00 -2.8 -3.5 95   34 11 6.4 100.51   -7 Fog
07:00 -2.8 -3.5 95   32 11 3.2 100.52   -7 Fog
08:00 -2.7 -3.4 95   34 11 12.9 100.54   -7 Cloudy
09:00 -2.3 -3.1 94   34 13 16.1 100.51   -7 Cloudy
10:00 -2.0 -2.8 94   35 9 16.1 100.47   -5 Cloudy
11:00 -1.5 -2.4 94   36 11 19.3 100.44   -5 Cloudy
12:00 -0.7 -1.8 92   35 7 24.1 100.40   -3 Cloudy
13:00 0.0 -1.3 91   35 9 24.1 100.34   -3 Cloudy
14:00 0.9 -1.1 86   32 6 24.1 100.29     Mostly Cloudy
15:00 1.9 -0.3 85   30 9 24.1 100.23     Mostly Cloudy
16:00 2.4 0.3 86   30 7 24.1 100.18     Mostly Cloudy
17:00 2.0 0.6 90   27 11 24.1 100.14     Mostly Cloudy
18:00 0.9 0.0 94   26 7 24.1 100.12     Mostly Cloudy
19:00 0.3 -0.2 96   25 9 24.1 100.13     Mostly Cloudy
20:00 0.5 -0.2 95   27 9 24.1 100.15     Mostly Cloudy
21:00 0.6 -0.1 95   26 7 16.1 100.16     Rain,Snow
22:00 0.3 -0.1 97   26 4 3.2 100.13     Snow,Ice Pellets
23:00 0.2 -0.1 98   25 7 1.6 100.12     Snow

Notes on Data Quality.

Legend

  • E = Estimated
  • M = Missing
  • NA = Not Available*
  • [empty] = Indicates an unobserved value
Date modified: